Погода в Нагачеве

Украина / Львовская область     50°00′24″N   23°16′49″E
темп.,
°C
ветер,
м/с
пор.,
м/с
влажн.,
%
обл.,
%
осадки,
мм/ч
давл.,
гПа
погр.,
м
7 марта, вс
вс723:00−1зюз411740 0.0 1029373
02:00−1зюз512670 0.0 1028463
05:00−1зюз714620 0.0 1025571
08:00−1зюз714581 0.0 1024859
11:00+3з9134659 0.0 10221365
14:00+5зюз9144642 0.0 10191551
17:00+4зюз611559 0.0 1017964
20:000зюз512717 0.0 1017303
8 марта, пн
пн823:000зюз4107373 0.0 1016538
02:00−1з5118084 0.0 1016637
05:00−1з61195100 0.4 1015664
08:00−1сз5996100 1.3 1016569
11:00+1сз575789 0.3 10181180
14:00+2сз685566 0.3 10181611
17:00+1сз5762100 0.1 10191310
20:00−2сз368097 0.1 1021147
9 марта, вт
вт923:00−3сз23850 0.0 102275
02:00−3зсз22850 0.0 102260
05:00−3зсз22860 0.0 102247
08:00−2сз117948 0.0 1023150
11:00+1сз115947 0.0 1023918
14:00+2ссз115273 0.2 10221205
17:00+1в1155100 0.1 10211051
20:00−2вюв357598 0.1 1022102
10 марта, ср
ср1023:00−2вюв3671100 0.0 1022177
02:00−2вюв2572100 0.0 1022176
05:00−2в2471100 0.0 1021154
08:00−1всв3467100 0.0 1021216
11:00+1всв2254100 0.0 10221121
14:00+2св224498 0.1 10221545
17:00+2св2253100 0.1 1022783
20:00−1в226594 0.1 102422
11 марта, чт
чт1123:00−2юв226790 0.0 102531
02:00−3ю237254 0.0 102541
05:00−3ю23710 0.0 102347
08:00−1ююв36650 0.0 1023227
11:00+2ю574962 0.0 1021684
14:00+5ююз6104881 0.0 10181206
17:00+3ююз51366100 0.0 1016838
20:00+1ююз61594100 1.4 1015792